[[{"header":{"parameterUnit":"m.s-1","parameterCategory":1,"la1":30.2991,"la2":30.254,"lo1":-89.0895,"lo2":-89.0444,"dy":0.0017,"dx":0.0017,"nx":28,"ny":28,"refTime":"2025-11-23T09:00:00:Z","depth":0,"parameterNumber":2,"parameterNumberName":"U-component_of_WINDS"},"data":[0,0,0,0,0,0,0,0,0,0,0,0,0,0,0,0,0,0,0,0,0,0,0,0,0,0,0,0,0,0,0,0,0,0,0,0,0,0,0,0,0,0,0,0,0,0,0,0,0,0,0,0,0,0,0,0,0,0,-4.1877,-4.1878,0,-4.1929,-4.193,-4.193,-4.19,-4.1899,-4.1897,-4.1896,-4.1948,-4.1951,-4.1954,0,0,0,0,0,0,0,0,0,0,0,0,0,-4.1753,-4.1756,-4.1877,-4.1878,-4.1878,-4.1929,-4.193,-4.193,-4.1901,-4.1899,-4.1897,-4.1895,-4.1948,-4.1951,-4.1954,0,0,0,0,0,0,0,0,0,0,0,0,0,-4.1806,-4.1757,-4.1877,-4.187,-4.187,-4.1929,-4.193,-4.1931,-4.1901,-4.1899,-4.1897,-4.1895,-4.1946,-4.195,-4.1955,-4.2024,0,0,-4.1967,-4.1969,0,0,0,0,0,0,0,0,-4.1803,-4.1811,-4.187,-4.187,-4.187,-4.1906,-4.1905,-4.1962,-4.1902,-4.1889,-4.1896,-4.1894,-4.1936,-4.1941,-4.1955,-4.2026,-4.2028,-4.1967,-4.197,-4.1972,-4.1973,0,0,0,0,0,0,0,-4.18,-4.1809,-4.1898,-4.1871,-4.1871,-4.1864,-4.1869,-4.1916,-4.1924,-4.189,-4.1888,-4.1895,-4.1936,-4.1951,-4.1956,-4.2029,-4.1967,-4.1971,-4.1974,-4.1975,-4.2161,-4.2163,0,0,0,0,0,0,-4.1797,-4.1806,-4.1896,-4.1899,-4.1831,-4.1868,-4.1874,-4.1897,-4.1924,-4.1926,-4.1896,-4.1893,-4.1945,-4.1952,-4.1958,-4.204,-4.1972,-4.1976,-4.1978,-4.2158,-4.2161,-4.2164,0,0,0,0,0,0,-4.1794,-4.1805,-4.1894,-4.1852,-4.1863,-4.1873,-4.1899,-4.1899,-4.1914,-4.1928,-4.193,-4.1911,-4.1944,-4.1952,-4.2008,-4.2042,-4.1977,-4.1981,-4.2155,-4.2159,-4.2163,-4.2205,0,0,0,0,0,0,-4.1791,-4.1804,-4.183,-4.1853,-4.1865,-4.1942,-4.1901,-4.1902,-4.1922,-4.1918,-4.1942,-4.1944,-4.1943,-4.2002,-4.2012,-4.2046,-4.1984,-4.2152,-4.2157,-4.2161,-4.2201,-4.221,-4.2218,0,0,0,0,0,-4.1786,-4.1839,-4.1831,-4.1842,-4.1897,-4.1944,-4.1951,-4.1949,-4.1925,-4.1951,-4.196,-4.1943,-4.2038,-4.2008,-4.2019,-4.2055,-4.215,-4.2156,-4.2161,-4.2197,-4.2208,-4.2218,0,0,0,0,0,0,-4.1819,-4.1842,-4.1833,-4.1895,-4.1918,-4.1939,-4.1971,-4.1961,-4.199,-4.1985,-4.1981,-4.1987,-4.2045,-4.2056,-4.2023,-4.2124,-4.209,-4.2098,-4.2114,-4.2124,-4.2133,-4.2127,-4.1988,0,0,0,0,0,-4.1834,-4.1869,-4.1888,-4.1941,-4.1953,-4.1961,-4.1981,-4.1978,-4.2001,-4.201,-4.2024,-4.2047,-4.2082,-4.2104,-4.2137,-4.2204,-4.2209,-4.2235,-4.2243,-4.225,-4.2256,-4.2293,-4.2304,-4.2182,-4.2182,-4.2182,0,0,-4.1863,-4.1881,-4.1903,-4.1948,-4.1965,-4.2003,-4.1969,-4.2009,-4.2037,-4.2016,-4.2069,-4.2081,-4.2107,-4.2168,-4.2196,-4.2179,-4.2292,-4.2257,-4.2263,-4.2265,-4.2299,-4.2311,-4.2321,-4.2186,-4.2185,-4.2185,0,0,-4.1936,-4.1954,-4.1999,-4.2018,-4.2045,-4.2051,-4.2062,-4.2086,-4.2093,-4.2146,-4.2132,-4.2166,-4.2226,-4.2245,-4.2262,-4.2348,-4.2333,-4.2359,-4.2402,-4.2437,-4.2447,-4.2455,-4.2484,-4.2495,-4.2366,-4.2366,-4.2366,0,-4.1969,-4.2024,-4.2024,-4.2067,-4.2087,-4.2072,-4.2119,-4.2137,-4.2174,-4.2188,-4.217,-4.2246,-4.2263,-4.2329,-4.235,-4.2366,-4.2378,-4.2354,-4.2446,-4.2454,-4.2462,-4.249,-4.2501,-4.2369,-4.2368,-4.2368,-4.2368,0,-4.2063,-4.2103,-4.2137,-4.2173,-4.2198,-4.2242,-4.2249,-4.2275,-4.2272,-4.2279,-4.2335,-4.2355,-4.2392,-4.2409,-4.2405,-4.2475,-4.2464,-4.2446,-4.2411,-4.2476,-4.2502,-4.2513,-4.2373,-4.2372,-4.2371,-4.237,0,0,-4.2152,-4.2191,-4.2203,-4.222,-4.2252,-4.2282,-4.2327,-4.2364,-4.2386,-4.2413,-4.245,-4.2504,-4.2488,-4.2509,-4.2508,-4.254,-4.2605,-4.2518,-4.2519,-4.2532,-4.2683,-4.2693,-4.2705,-4.2598,-4.26,-4.2602,-4.268,0,-4.2225,-4.2303,-4.2306,-4.2377,-4.2413,-4.2402,-4.2442,-4.2466,-4.2476,-4.2508,-4.252,-4.2557,-4.2535,-4.2547,-4.2578,-4.259,-4.2635,-4.2585,-4.2631,-4.2633,-4.2621,-4.2719,-4.2729,-4.2802,-4.269,-4.2692,-4.2693,0,-4.2319,-4.235,-4.2425,-4.2452,-4.2468,-4.2503,-4.2538,-4.257,-4.2598,-4.2603,-4.2628,-4.2623,-4.267,-4.2638,-4.2702,-4.2669,-4.2689,-4.2698,-4.2701,-4.2702,-4.2664,-4.272,-4.2825,-4.2835,-4.2709,-4.2708,-4.2707,0,-4.2373,-4.2435,-4.2487,-4.2503,-4.2537,-4.2562,-4.2577,-4.2603,-4.2626,-4.2658,-4.2673,-4.271,-4.2729,-4.2759,-4.2765,-4.2741,-4.2829,-4.2797,-4.2834,-4.2834,-4.2849,-4.2847,-4.2956,-4.2868,-4.2868,-4.2868,-4.2867,0,-4.2452,-4.2497,-4.2512,-4.2544,-4.2596,-4.2601,-4.2652,-4.2666,-4.269,-4.2725,-4.2719,-4.2752,-4.276,-4.2795,-4.2801,-4.2853,-4.2863,-4.2868,-4.2868,-4.2866,-4.2865,-4.2876,-4.287,-4.2871,-4.287,-4.2869,-4.2869,0,-4.2519,-4.2531,-4.2587,-4.2617,-4.2626,-4.2662,-4.2687,-4.2718,-4.273,-4.2774,-4.2785,-4.2802,-4.2844,-4.2854,-4.2904,-4.2908,-4.2969,-4.2966,-4.2959,-4.2957,-4.2993,-4.2988,-4.3109,-4.3125,-4.303,-4.3031,-4.3032,0,-4.2566,-4.2601,-4.2635,-4.2658,-4.2675,-4.2713,-4.2737,-4.2745,-4.277,-4.2807,-4.2834,-4.2875,-4.2907,-4.2974,-4.2991,-4.303,-4.3026,-4.3066,-4.3031,-4.3029,-4.3023,-4.302,-4.3023,-4.3071,-4.3072,-4.3073,-4.3073,0,-4.2648,-4.2653,-4.2688,-4.2725,-4.2754,-4.2784,-4.2813,-4.2833,-4.2845,-4.2874,-4.2916,-4.2942,-4.2994,-4.3034,-4.3074,-4.3091,-4.3084,-4.3085,-4.3095,-4.3091,-4.3085,-4.3087,-4.2973,-4.3081,-4.308,-4.308,-4.3079,-4.3079,-4.2705,-4.2735,-4.2765,-4.2804,-4.2827,-4.2855,-4.2886,-4.2902,-4.2938,-4.298,-4.2984,-4.303,-4.306,-4.3112,-4.3132,-4.3169,-4.3156,-4.3171,-4.3175,-4.3177,-4.3179,-4.3083,-4.3176,-4.3176,-4.3176,-4.3176,-4.3176,0,-4.2784,-4.2803,-4.284,-4.2881,-4.2912,-4.2906,-4.2939,-4.2965,-4.3006,-4.3035,-4.3068,-4.3118,-4.3158,-4.3181,-4.3221,-4.3246,-4.3245,-4.3257,-4.3253,-4.3257,-4.3189,-4.3175,-4.3257,-4.3257,-4.3257,-4.3257,-4.3257,-4.3257,-4.2828,-4.288,-4.289,-4.2953,-4.2973,-4.3018,-4.3037,-4.3063,-4.3086,-4.3142,-4.3176,-4.3191,-4.3218,-4.3261,-4.3298,-4.3304,-4.3318,-4.3331,-4.3335,-4.327,-4.3261,-4.3253,-4.324,-4.3335,-4.3335,-4.3399,-4.34,-4.34]},{"header":{"parameterUnit":"m.s-1","parameterCategory":1,"la1":30.2991,"la2":30.254,"lo1":-89.0895,"lo2":-89.0444,"dy":0.0017,"dx":0.0017,"nx":28,"ny":28,"refTime":"2025-11-23T09:00:00:Z","depth":0,"parameterNumber":3,"parameterNumberName":"V-component_of_WINDS"},"data":[0,0,0,0,0,0,0,0,0,0,0,0,0,0,0,0,0,0,0,0,0,0,0,0,0,0,0,0,0,0,0,0,0,0,0,0,0,0,0,0,0,0,0,0,0,0,0,0,0,0,0,0,0,0,0,0,0,0,1.7613,1.7614,0,1.7729,1.773,1.7731,1.7815,1.7816,1.7817,1.7817,1.7935,1.7937,1.794,0,0,0,0,0,0,0,0,0,0,0,0,0,1.7467,1.7469,1.7613,1.7614,1.7616,1.7728,1.773,1.7731,1.7815,1.7816,1.7817,1.7818,1.7934,1.7937,1.794,0,0,0,0,0,0,0,0,0,0,0,0,0,1.7551,1.747,1.7613,1.7671,1.7677,1.7728,1.773,1.7732,1.7815,1.7816,1.7817,1.7818,1.7933,1.7937,1.794,1.7942,0,0,1.7952,1.7953,0,0,0,0,0,0,0,0,1.7546,1.7556,1.7661,1.7667,1.7674,1.7759,1.7722,1.7802,1.7815,1.7763,1.7817,1.7819,1.7875,1.7884,1.7903,1.7947,1.7952,1.7952,1.7954,1.7956,1.7957,0,0,0,0,0,0,0,1.754,1.7552,1.7659,1.7662,1.7671,1.7692,1.7706,1.7737,1.7812,1.7767,1.7774,1.7786,1.7879,1.7899,1.7907,1.7954,1.7952,1.7955,1.7958,1.7959,1.8011,1.801,0,0,0,0,0,0,1.7525,1.7547,1.7655,1.7662,1.7612,1.7694,1.7709,1.773,1.7811,1.7825,1.7785,1.779,1.7893,1.7902,1.7911,1.7921,1.7956,1.7959,1.7962,1.8012,1.8011,1.801,0,0,0,0,0,0,1.7522,1.7534,1.765,1.7606,1.7623,1.7696,1.7719,1.7732,1.7753,1.7825,1.7839,1.7792,1.7894,1.7906,1.7935,1.7926,1.7961,1.7964,1.8013,1.8011,1.801,1.7939,0,0,0,0,0,0,1.7517,1.7532,1.7533,1.7606,1.7625,1.7671,1.7719,1.7734,1.7759,1.7766,1.7835,1.7848,1.7896,1.7929,1.7938,1.7932,1.7967,1.8014,1.8012,1.801,1.7943,1.7936,1.793,0,0,0,0,0,1.7512,1.7507,1.7532,1.7545,1.7626,1.767,1.7681,1.7737,1.7758,1.776,1.7807,1.7845,1.7926,1.7931,1.7943,1.7937,1.8014,1.8012,1.8011,1.7946,1.7937,1.793,0,0,0,0,0,0,1.743,1.7517,1.7546,1.7565,1.761,1.7684,1.7688,1.7725,1.7764,1.7769,1.7837,1.7852,1.7874,1.7909,1.7913,1.7946,1.7975,1.7975,1.7922,1.7915,1.7908,1.79,1.797,0,0,0,0,0,1.7414,1.7442,1.7517,1.7526,1.7547,1.7614,1.7635,1.7674,1.7723,1.7742,1.7791,1.7838,1.7874,1.7896,1.7933,1.7949,1.7967,1.7951,1.7945,1.7939,1.7939,1.7953,1.7948,1.8003,1.8003,1.8003,0,0,1.7381,1.7433,1.7446,1.7511,1.755,1.7579,1.7629,1.7656,1.7678,1.7746,1.7777,1.7815,1.7872,1.7895,1.7908,1.7925,1.7928,1.7937,1.7931,1.7934,1.7951,1.7946,1.7941,1.8002,1.8002,1.8002,0,0,1.7337,1.7377,1.7391,1.7431,1.749,1.7535,1.7539,1.7609,1.7637,1.767,1.7723,1.7751,1.781,1.785,1.7878,1.7853,1.7891,1.7863,1.783,1.7843,1.7839,1.7835,1.7829,1.7826,1.7863,1.7862,1.7862,0,1.7288,1.7333,1.7394,1.7419,1.7448,1.7512,1.7528,1.7563,1.7631,1.765,1.7668,1.7748,1.779,1.7826,1.782,1.784,1.7848,1.7855,1.7835,1.7832,1.7829,1.7824,1.7822,1.7859,1.7859,1.786,1.786,0,1.7273,1.7303,1.7307,1.7374,1.7403,1.7423,1.7488,1.7511,1.7549,1.7592,1.7627,1.768,1.7731,1.7742,1.7778,1.7784,1.7793,1.7822,1.7853,1.782,1.7816,1.7814,1.7854,1.7855,1.7856,1.7857,0,0,1.7177,1.728,1.728,1.7313,1.7386,1.7411,1.7436,1.7487,1.7506,1.7552,1.7576,1.7628,1.7656,1.7688,1.7729,1.7741,1.7722,1.7769,1.7772,1.7761,1.7736,1.7714,1.7711,1.7748,1.7748,1.7748,1.7732,0,1.7145,1.7193,1.725,1.7279,1.731,1.7374,1.7396,1.7444,1.7486,1.752,1.7567,1.7603,1.7637,1.7657,1.7671,1.7721,1.7718,1.7723,1.7773,1.7774,1.7758,1.7709,1.7685,1.7667,1.773,1.773,1.773,0,1.7114,1.7159,1.7191,1.7265,1.728,1.7298,1.7352,1.7383,1.7439,1.747,1.7507,1.7553,1.7585,1.7612,1.7659,1.7661,1.7685,1.7713,1.7714,1.7721,1.775,1.7716,1.7662,1.766,1.7728,1.7728,1.7728,0,1.7044,1.7112,1.7142,1.7167,1.7253,1.7266,1.7302,1.736,1.7389,1.7436,1.7456,1.7505,1.7532,1.7571,1.763,1.7644,1.7671,1.7702,1.7698,1.7697,1.7701,1.77,1.7652,1.7714,1.7714,1.7714,1.7714,0,1.7003,1.7021,1.7112,1.713,1.7153,1.722,1.7241,1.7283,1.7335,1.7364,1.7422,1.7448,1.7524,1.7559,1.7606,1.7639,1.765,1.7677,1.7689,1.7673,1.7669,1.769,1.7693,1.7714,1.7714,1.7714,1.7714,0,1.6929,1.699,1.7027,1.7107,1.7127,1.7141,1.721,1.7231,1.7278,1.7314,1.7326,1.74,1.7446,1.7509,1.7572,1.7604,1.7632,1.765,1.7612,1.762,1.7613,1.7614,1.7577,1.7577,1.7637,1.7637,1.7636,0,1.6899,1.6915,1.6997,1.7021,1.7056,1.7093,1.7124,1.7191,1.722,1.7289,1.7302,1.7352,1.7396,1.7466,1.7526,1.7576,1.7598,1.7582,1.7605,1.7589,1.76,1.7599,1.7602,1.7575,1.7574,1.7574,1.7573,0,1.6841,1.6872,1.6913,1.6966,1.7,1.7045,1.7092,1.7109,1.7187,1.7217,1.7265,1.7299,1.7366,1.7416,1.7476,1.7515,1.7558,1.7565,1.7568,1.7551,1.7529,1.7543,1.7598,1.7566,1.7566,1.7567,1.7567,1.7568,1.679,1.6808,1.687,1.6915,1.6958,1.7002,1.7027,1.7079,1.712,1.718,1.7218,1.7265,1.7325,1.741,1.7447,1.7486,1.7503,1.7505,1.7506,1.7506,1.7502,1.7522,1.7497,1.7497,1.7498,1.7498,1.7498,0,1.6736,1.678,1.6821,1.6887,1.6923,1.6961,1.7017,1.7045,1.7086,1.7139,1.7181,1.7238,1.7288,1.7354,1.7409,1.7427,1.7449,1.744,1.744,1.7449,1.7482,1.7476,1.7422,1.7422,1.7422,1.7422,1.7422,1.7422,1.6713,1.6747,1.6786,1.6843,1.6888,1.6934,1.6963,1.7005,1.7049,1.711,1.7152,1.7194,1.7254,1.7314,1.7363,1.7381,1.7399,1.7384,1.7409,1.7439,1.7446,1.7452,1.7447,1.7387,1.7387,1.7372,1.7372,1.7372]}]]